Location: Unspecified
(50.7693°N, 0.0000°E)
Time: 04:01:34
(UTC+00:00)

Courier 1B - All Passes

Search period start: 25 June 2019 00:00
Search period end: 05 July 2019 00:00
Orbit: 963 x 1209 km, 28.3° (Epoch: 23 June)

Date Brightness Start Highest point End Pass type
(mag) Time Alt. Az. Time Alt. Az. Time Alt. Az.
25 Jun - 19:39:29 10° SSW 19:41:08 11° S 19:42:47 10° S daylight
26 Jun - 18:46:10 10° SSW 18:47:42 11° S 18:49:14 10° SSE daylight
27 Jun - 17:53:34 10° S 17:54:17 10° S 17:55:00 10° S daylight
